| time (UTC) | temp F | wind direction | speed knots | gust knots | rain 1hr in | rain 24hr in | rain mn in | humidity % | barometer mb |
| 20260504011556 | 62 | 334 | 13.0 | 20.0 | 0.00 | 0.00 | 0.00 | 41 | 996.3 |
| 20260504010105 | 63 | 339 | 6.1 | 10.4 | 0.00 | 0.00 | 0.00 | 48 | 995.5 |
| 20260504004601 | 65 | 317 | 5.2 | 8.7 | 0.00 | 0.00 | 0.00 | 45 | 995.5 |
| 20260504003057 | 64 | 306 | 3.5 | 7.8 | 0.00 | 0.00 | 0.00 | 48 | 995.7 |
| 20260504001606 | 64 | 304 | 5.2 | 8.7 | 0.00 | 0.00 | 0.00 | 48 | 995.5 |
| 20260504000100 | 64 | 305 | 8.7 | 13.0 | 0.00 | 0.00 | 0.00 | 47 | 995.7 |
| 20260503234556 | 65 | 296 | 10.4 | 13.9 | 0.00 | 0.00 | 0.00 | 43 | 995.9 |
| 20260503233101 | 65 | 294 | 11.3 | 18.2 | 0.00 | 0.00 | 0.00 | 43 | 996.2 |
| 20260503231558 | 66 | 314 | 12.2 | 18.2 | 0.00 | 0.00 | 0.00 | 41 | 996.4 |
| 20260503224558 | 66 | 321 | 17.4 | 25.2 | 0.00 | 0.00 | 0.00 | 41 | 997.2 |
| 20260503223055 | 66 | 329 | 14.8 | 20.0 | 0.00 | 0.00 | 0.00 | 39 | 997.1 |
| 20260503221602 | 70 | 327 | 17.4 | 28.7 | 0.00 | 0.00 | 0.00 | 32 | 997.6 |
| 20260503220059 | 71 | 275 | 18.2 | 30.4 | 0.00 | 0.00 | 0.00 | 25 | 997.4 |
| 20260503214603 | 72 | 277 | 20.0 | 32.2 | 0.00 | 0.00 | 0.00 | 25 | 997.7 |
| 20260503213058 | 72 | 270 | 19.1 | 30.4 | 0.00 | 0.00 | 0.00 | 24 | 998.0 |
| 20260503211557 | 73 | 267 | 20.9 | 34.8 | 0.00 | 0.00 | 0.00 | 23 | 998.2 |
| 20260503210059 | 73 | 266 | 24.3 | 32.2 | 0.00 | 0.00 | 0.00 | 23 | 998.6 |
| 20260503204603 | 74 | 273 | 24.3 | 33.9 | 0.00 | 0.00 | 0.00 | 23 | 998.9 |
| 20260503203058 | 74 | 285 | 22.6 | 33.9 | 0.00 | 0.00 | 0.00 | 22 | 999.3 |
| 20260503201558 | 73 | 279 | 21.7 | 32.2 | 0.00 | 0.00 | 0.00 | 23 | 999.7 |
| 20260503200101 | 73 | 264 | 20.9 | 33.9 | 0.00 | 0.00 | 0.00 | 23 | 1000.1 |
| 20260503194609 | 72 | 271 | 16.5 | 26.1 | 0.00 | 0.00 | 0.00 | 25 | 1000.5 |
| 20260503193112 | 73 | 268 | 19.1 | 30.4 | 0.00 | 0.00 | 0.00 | 23 | 1000.8 |
| 20260503191602 | 72 | 273 | 19.1 | 26.1 | 0.00 | 0.00 | 0.00 | 24 | 1001.1 |
| 20260503190110 | 71 | 288 | 17.4 | 26.1 | 0.00 | 0.00 | 0.00 | 24 | 1001.6 |
| 20260503184601 | 70 | 275 | 16.5 | 27.8 | 0.00 | 0.00 | 0.00 | 26 | 1002.2 |
| 20260503183114 | 69 | 267 | 19.1 | 24.3 | 0.00 | 0.00 | 0.00 | 25 | 1002.8 |
| 20260503181602 | 69 | 273 | 16.5 | 27.8 | 0.00 | 0.00 | 0.00 | 25 | 1003.2 |
| 20260503180103 | 70 | 289 | 18.2 | 28.7 | 0.00 | 0.00 | 0.00 | 24 | 1003.7 |
| 20260503174605 | 68 | 266 | 20.9 | 30.4 | 0.00 | 0.00 | 0.00 | 26 | 1003.9 |
| 20260503173113 | 69 | 280 | 17.4 | 32.2 | 0.00 | 0.00 | 0.00 | 26 | 1004.3 |
| 20260503171555 | 69 | 287 | 17.4 | 29.5 | 0.00 | 0.00 | 0.00 | 27 | 1004.5 |
| 20260503150111 | 56 | 238 | 13.9 | 20.9 | 0.00 | 0.00 | 0.00 | 44 | 1007.9 |
| 20260503140119 | 51 | 207 | 9.6 | 14.8 | 0.00 | 0.00 | 0.00 | 56 | 1009.5 |
| 20260503130106 | 42 | 215 | 8.7 | 11.3 | 0.00 | 0.00 | 0.00 | 71 | 1010.0 |
| 20260503110110 | 30 | 318 | 2.6 | 4.3 | 0.00 | 0.00 | 0.00 | 86 | 1011.1 |
| 20260503100108 | 31 | 333 | 1.7 | 3.5 | 0.00 | 0.00 | 0.00 | 85 | 1011.7 |
| 20260503081606 | 30 | 333 | 0.9 | 1.7 | 0.00 | 0.00 | 0.00 | 83 | 1011.8 |
| 20260503071607 | 33 | 333 | 0.9 | 2.6 | 0.00 | 0.00 | 0.00 | 79 | 1012.1 |
| 20260503070104 | 34 | 333 | 0.9 | 2.6 | 0.00 | 0.00 | 0.00 | 76 | 1012.1 |
| 20260503060113 | 37 | 0 | 0.0 | 0.0 | 0.00 | 0.00 | 0.00 | 73 | 1012.1 |
| 20260503054558 | 37 | 0 | 0.0 | 0.0 | 0.00 | 0.00 | 0.00 | 72 | 1012.3 |
| 20260503053058 | 37 | 0 | 0.0 | 0.0 | 0.00 | 0.00 | 0.00 | 71 | 1012.3 |
| 20260503051602 | 38 | 0 | 0.0 | 0.0 | 0.00 | 0.00 | 0.00 | 70 | 1012.3 |
| 20260503050057 | 38 | 0 | 0.0 | 0.0 | 0.00 | 0.00 | 0.00 | 69 | 1012.3 |
| 20260503044554 | 39 | 0 | 0.0 | 3.5 | 0.00 | 0.00 | 0.00 | 69 | 1012.4 |
| 20260503043057 | 41 | 333 | 1.7 | 2.6 | 0.00 | 0.00 | 0.00 | 63 | 1012.5 |
| 20260503041556 | 42 | 333 | 2.6 | 4.3 | 0.00 | 0.00 | 0.00 | 62 | 1012.5 |
| 20260503040055 | 44 | 333 | 2.6 | 7.0 | 0.00 | 0.00 | 0.00 | 58 | 1012.6 |
| 20260503034556 | 47 | 333 | 7.0 | 10.4 | 0.00 | 0.00 | 0.00 | 54 | 1012.8 |
| 20260503033101 | 48 | 334 | 8.7 | 12.2 | 0.00 | 0.00 | 0.00 | 52 | 1012.8 |
| 20260503031558 | 49 | 326 | 8.7 | 13.0 | 0.00 | 0.00 | 0.00 | 50 | 1012.8 |
| 20260503030058 | 49 | 333 | 8.7 | 11.3 | 0.00 | 0.00 | 0.00 | 49 | 1012.7 |
| 20260503024602 | 51 | 321 | 8.7 | 12.2 | 0.00 | 0.00 | 0.00 | 46 | 1012.7 |
| 20260503023103 | 52 | 323 | 8.7 | 13.0 | 0.00 | 0.00 | 0.00 | 43 | 1012.3 |
| 20260503021600 | 53 | 327 | 10.4 | 15.6 | 0.00 | 0.00 | 0.00 | 40 | 1011.9 |
| 20260503020101 | 55 | 333 | 10.4 | 17.4 | 0.00 | 0.00 | 0.00 | 38 | 1011.6 |
| 20260503014624 | 56 | 331 | 12.2 | 17.4 | 0.00 | 0.00 | 0.00 | 37 | 1011.5 |
| 20260503013059 | 58 | 339 | 13.0 | 19.1 | 0.00 | 0.00 | 0.00 | 36 | 1011.2 |